Location: Unspecified
(0.0000°N, 0.0000°E)
Time: 12:24:50
(UTC+00:00)

Vanguard 2 - Pass Details

Date: 19 December 2018
Orbit: 552 x 2939 km, 32.9° (Epoch: 25 March)

Event Time Altitude Azimuth Distance (km) Brightness Sun altitude
Rises 07:24:58 0° 245° (WSW) 6,725 12.0 20.1°
Reaches altitude 10° 07:32:39 10° 226° (SW) 5,770 11.8 21.8°
Maximum altitude 07:41:57 16° 194° (SSW) 5,085 12.0 23.9°
Drops below altitude 10° 07:50:26 10° 161° (SSE) 5,185 12.5 25.8°
Sets 07:56:41 0° 140° (SE) 5,753 13.0 27.2°
